Regional Weather Roundup
Issued by NWS

Home | Current Version | Previous Version | Text Only | Print | Product List | Glossary On
Versions: 1 2 3 4 5 6 7 8 9 10 11 12 13 14 15 16 17 18 19 20 21 22 23 24 25 26 27 28 29 30 31 32 33 34 35 36 37 38 39 40 41 42 43 44 45 46 47 48 49 50
000
ASUS43 KTOP 180759
RWRKS

WEATHER ROUNDUP FOR KANSAS
NATIONAL WEATHER SERVICE GOODLAND KS
300 AM CDT FRI AUG 18 2017

NOTE:  "FAIR" INDICATES FEW OR NO CLOUDS BELOW 12,000 FEET WITH NO
SIGNIFICANT WEATHER AND/OR OBSTRUCTIONS TO VISIBILITY.

KSZ001>006-013>018-027>032-041>047-180900-
NORTHWEST KANSAS

CITY           SKY/WX    TMP DP  RH WIND       PRES   REMARKS
GOODLAND       CLOUDY    63  57  81 S16       30.03F
HAYS           CLOUDY    63  60  90 S12       29.96F
HILL CITY      CLEAR     66  58  75 SW8       29.96F
RUSSELL        MOCLDY    66  61  84 S18       29.91F
$$

KSZ061>065-074>080-084>089-180900-
SOUTHWEST KANSAS

CITY           SKY/WX    TMP DP  RH WIND       PRES   REMARKS
DODGE CITY     CLOUDY    66  58  75 E5        30.02F
ELKHART          N/A     63  62  97 S9          N/A
GARDEN CITY    CLOUDY    65  60  84 SE7       30.04S
GREAT BEND     CLOUDY    64  62  93 S9        29.97F
LIBERAL        CLOUDY    65  61  87 MISG        N/A
$$

KSZ066>073-081>083-090>101-180900-
SOUTHEAST KANSAS

CITY           SKY/WX    TMP DP  RH WIND       PRES   REMARKS
CHANUTE        PTCLDY    67  62  84 S3        29.99S
COFFEYVILLE    PTCLDY    65  64  97 S3        29.99S
HUTCHINSON     LGT RAIN  67  64  90 N9        30.03F
MEDICINE LODGE   N/A     72  62  71 N12       29.99R
NEWTON         LGT RAIN  70  63  78 W12       30.06R
PARSONS        PTCLDY    64  62  93 CALM      30.00S
WICHITA INTL   TSTM      73  63  70 VRB3      30.01R
WICHITA JABRA  MOCLDY    74  60  61 SW10      30.00R
WICHITA MCCONL LGT RAIN  73  57  56 W13       30.01R
WINFIELD       PTCLDY    69  63  81 S7        30.00F
$$

KSZ007>012-019>026-033>040-048>060-102>105-180900-
NORTHEAST KANSAS

CITY           SKY/WX    TMP DP  RH WIND       PRES   REMARKS
CONCORDIA      MOCLDY    73  60  63 S17       29.92F
EMPORIA        MOCLDY    68  60  75 S8        29.97F
LAWRENCE       CLOUDY    61  61 100 CALM      29.96S
MANHATTAN      PTCLDY    68  63  84 SW10      29.96S
OLATHE IND     PTCLDY    68  60  75 SW8       29.98S
OLATHE EXE     PTCLDY    66  62  87 SW3       29.98R
SALINA         RAIN      73  64  73 SW28G36   29.96F
TOPEKA BILLARD MOCLDY    64  62  93 CALM      29.95F
TOPEKA FORBES  PTCLDY    66  62  87 S6        29.96F
$$



USA.gov is the U.S. government's official web portal to all federal, state and local government web resources and services.